Location: Arborea
(39.7744°N, 8.5819°E)
Time: 01:05:12
(UTC+00:00)

YAOGAN 1 - Pass Details

Date: 24 October 2021
Orbit: 618 x 620 km, 97.9° (Epoch: 06 December)

Event Time Altitude Azimuth Distance (km) Brightness Sun altitude
Rises 18:40:49 0° 181° (S) 2,880 6.0 -25.1°
Reaches altitude 10° 18:43:04 10° 188° (S) 1,979 5.2 -25.5°
Maximum altitude 18:47:12 44° 261° (W) 856 3.6 -26.3°
Drops below altitude 10° 18:51:21 10° 334° (NNW) 1,994 5.5 -27.1°
Sets 18:53:38 0° 341° (NNW) 2,905 6.3 -27.5°
